Find Starlink 37942

NORAD ID: 100280 Int'l Des: 2026-183 Owner: SPXS Country: US Constellation: starlink operational

現在のビュー

3D地球を読み込み中...

About Starlink 37942

Starlink 37942 (NORAD 100280) is a starlink constellation satellite launched Aug 11, 2026 by SPXS of US. with a mass of 575.00 kg.

次回通過

Passes for default location (London). Set your location on the main map for personalized predictions.

高度履歴

Loading altitude history...

軌道要素

1 A0280U 26183J 26256.49533694 -.00498621 00000-0 -35909-2 0 9994
2 A0280 53.1588 291.9032 0002011 55.3419 304.7790 15.74277222 5205
Epoch: Sep 13, 2026 • Age: 173 hours

現在のステータス

高度 366.1 km
遠地点 / 近地点 N/A
速度 7.69 km/s
衛星直下点 3.97°N, 12.95°E
打ち上げ日 Aug 11, 2026
運用期間 0.1 years
タイプ internet

技術仕様

分類 Payload
質量 575.00 kg
乾燥質量 530.00 kg
長さ 0.30 m
スパン 29.00 m
形状 ? Box + pan
製造者 SPXS
バスタイプ Starlink V2MO
フェーズステータス In Orbit
所有者/国 SPXS/US

Most Searched